Impacts METAR Board
IDs:

KEWR - Newark Intl, NJ, US

Updated at: 1100 UTC 23 Jun 2018
Potential Impact None Slight Moderate High
Time 22/23Z 23/00Z 23/01Z 23/02Z 23/03Z 23/04Z 23/05Z 23/06Z 23/07Z 23/08Z 23/09Z 23/10Z 23/11Z
Temp68 67 67 67 66 64 65 65 65 65 64 65 65
Dewpt59 60 60 60 60 62 60 59 57 56 55 53 52
Altim30.00 29.99 29.98 29.99 30.00 29.98 29.97 29.96 29.93 29.92 29.90 29.90 29.89
VIS10 10 10 10 10 5 10 10 10 10 10 10 10
CIG150 150 150 120 36 65 70 26 24 26 25 22 22
CoverBKNBKNBKNBKNOVCOVCBKNOVCOVCOVCOVCOVCOVC
FltCatVFRVFRVFRVFRVFRMVFRVFRMVFRMVFRMVFRMVFRMVFRMVFR
WX---------RA-RA BR--------------
WDir110100801001208050405050505050
WSpd7 8 6 7 7 6 9 8 10 7 9 7 7
WGst-- -- -- -- -- -- -- -- -- -- -- -- --
Raw hourly METARs
KEWR 222251Z 11007KT 10SM SCT020 SCT120 BKN150 BKN260 20/15 A3000 RMK AO2 SLP158 T02000150
KEWR 222351Z 10008KT 070V130 10SM SCT018 SCT110 BKN150 BKN250 19/16 A2999 RMK RAB14E32 SLP156 P0000 60000 T01940156 10228 20194 56003
KEWR 230051Z 08006KT 10SM FEW017 SCT110 BKN150 BKN250 19/16 A2998 RMK SLP153 T01940156
KEWR 230151Z 10007KT 10SM FEW015 BKN120 BKN170 BKN250 19/16 A2999 RMK SLP156 T01940156
KEWR 230251Z 12007KT 10SM -RA FEW015 BKN036 OVC120 19/16 A3000 RMK RAB16 SLP159 P0001 60001 T01890156 53003
KEWR 230351Z 08006KT 5SM -RA BR FEW007 SCT036 OVC065 18/17 A2998 RMK SLP152 P0013 T01780167
KEWR 230451Z 05009KT 10SM FEW007 SCT035 BKN070 BKN150 18/16 A2997 RMK AO2 RAE34 SLP147 P0000 T01830156 402330172 $
KEWR 230551Z 04008KT 10SM BKN026 OVC038 18/15 A2996 RMK AO2 SLP144 60014 T01830150 10200 20172 56015 $
KEWR 230651Z 05010KT 10SM OVC024 18/14 A2993 RMK AO2 RAB19E40 SLP135 P0000 T01830139 $
KEWR 230751Z 05007KT 10SM OVC026 18/13 A2992 RMK AO2 SLP131 T01830133 $
KEWR 230851Z 05009KT 10SM BKN025 OVC039 18/13 A2990 RMK AO2 RAB09E48 SLP123 P0000 60000 T01780128 56021 $
KEWR 230951Z 05007KT 10SM BKN022 BKN031 OVC050 18/12 A2990 RMK AO2 SLP123 T01830117 $
KEWR 231051Z 05007KT 10SM OVC022 18/11 A2989 RMK AO2 SLP122 T01830111 $



Page loaded:  11:40 UTC  |   04:40 AM Pacific  |   05:40 AM Mountain  |   06:40 AM Central  |   07:40 AM Eastern

 

ADVISORIES

FORECASTS

FORECASTS

OBSERVATIONS

USER TOOLS

ABOUT US